Wind_Speed
52 56 51 55 55 71 63 65 60 62 56 50 45 44 42 42 40 38 35 34 31 28 27 24 22 19 17 15 13 13 13 14 15 17 19 21 23 25
56 55 61 58 54 71 62 61 55 56 51 49 46 42 45 44 41 38 36 34 32 29 29 24 24 22 19 16 15 14 13 15 16 17 19 20 22 24
61 70 63 55 61 64 69 58 58 56 52 47 46 41 40 39 40 41 38 37 35 32 29 26 25 24 20 19 17 14 14 15 17 17 19 20 22 24
74 60 66 73 71 66 65 55 56 63 53 49 42 36 38 38 42 44 41 40 38 35 31 28 27 26 23 20 18 16 16 17 17 17 19 20 22 24
76 72 76 69 65 66 71 61 58 63 56 49 43 37 33 38 44 43 42 42 39 36 34 30 29 27 25 22 20 18 18 18 17 18 19 21 22 24
77 74 63 76 77 72 64 68 58 56 58 51 47 43 34 34 40 42 44 43 41 39 36 32 31 29 26 23 21 19 19 19 18 19 19 21 22 24
81 81 66 68 82 61 68 70 61 63 61 54 51 45 43 40 44 41 43 44 40 40 36 34 31 29 26 23 22 20 21 19 19 20 20 21 22 24
78 79 77 77 64 67 66 62 57 69 57 59 53 50 49 41 38 43 46 44 44 43 38 36 33 30 26 24 23 22 23 20 19 20 21 21 23 24
82 86 67 66 77 75 67 63 68 62 63 55 52 49 48 45 37 37 41 43 42 40 38 37 33 29 27 26 24 24 25 22 19 21 21 21 23 24
85 87 74 74 68 69 62 64 67 62 58 57 44 44 44 38 33 27 32 37 38 40 41 37 32 29 29 26 26 26 25 23 21 22 21 22 24 24
85 92 75 68 68 61 57 57 63 64 61 56 47 48 46 36 32 32 37 35 44 43 36 36 33 34 31 30 30 29 27 23 22 22 22 22 24 25
82 77 78 58 70 71 62 61 61 61 62 59 56 56 49 43 37 34 36 36 35 38 35 36 32 35 32 31 32 30 26 24 23 23 22 22 24 25
78 78 78 55 71 71 59 59 60 58 64 54 54 57 51 46 41 43 40 37 37 35 27 32 31 33 33 31 32 28 25 25 24 24 22 23 23 24
78 80 76 63 67 68 64 62 57 57 62 67 62 59 54 50 49 44 39 35 34 34 33 36 34 33 32 31 29 27 26 25 24 24 23 23 23 24
81 79 86 55 59 63 70 62 63 66 68 67 67 63 56 46 50 45 40 37 34 32 35 36 33 32 31 30 29 26 28 24 24 24 23 22 23 24
74 76 77 81 47 61 52 55 58 62 63 68 74 63 50 58 52 47 40 35 33 32 34 36 33 32 30 29 28 28 25 26 24 24 23 24 23 23
68 74 68 73 55 52 60 63 61 54 62 78 71 66 56 54 55 51 44 38 35 34 35 32 32 31 32 32 31 28 27 27 25 25 24 24 24 24
68 69 67 71 70 60 58 58 58 57 59 66 57 61 53 57 49 51 46 41 36 35 35 32 31 32 33 33 31 29 28 27 26 25 26 25 24 25
68 67 64 63 80 60 61 56 61 62 54 55 59 56 59 49 53 53 47 41 37 36 35 34 32 34 34 32 30 29 29 27 27 27 26 26 26 27
61 64 65 61 64 67 67 57 63 61 59 57 56 51 63 55 55 55 52 46 38 35 36 36 37 35 32 29 29 28 28 29 29 29 28 28 28 28
60 62 62 56 65 68 66 59 60 55 57 56 53 52 57 52 55 56 51 46 42 37 37 36 33 34 33 32 33 32 31 32 30 29 29 29 30 30
60 65 69 44 60 68 71 62 55 53 52 47 45 52 56 48 59 56 55 50 44 39 36 37 37 35 34 33 32 32 31 30 30 30 32 32 31 31
60 60 68 56 48 56 60 61 60 53 42 35 43 51 60 50 56 58 53 53 47 43 39 38 37 37 37 36 34 33 32 31 31 32 33 36 36 30
Wind_Direction
207 217 221 218 226 219 229 222 216 217 211 212 212 210 212 212 211 213 216 217 218 219 225 227 231 237 242 252 264 278 292 306 317 328 335 343 348 348
211 202 210 210 227 223 219 221 214 221 227 220 221 219 214 213 212 213 218 221 221 221 226 225 233 238 242 250 260 272 288 300 310 324 330 337 342 345
214 210 205 205 213 220 225 219 221 214 220 227 227 229 225 219 218 216 216 222 223 224 227 225 230 239 242 249 259 269 282 293 304 315 324 334 338 343
217 209 209 216 215 220 227 229 212 213 223 216 225 228 230 224 220 220 217 220 224 225 227 225 229 236 241 246 255 265 275 287 297 310 321 328 333 339
210 211 203 209 211 221 217 223 225 218 219 212 219 221 229 228 224 221 221 222 224 226 227 227 230 235 241 246 252 261 272 282 294 306 316 324 329 335
213 213 201 206 210 223 219 222 214 227 216 210 211 217 223 224 225 223 221 223 225 227 228 228 232 234 238 244 249 256 267 278 290 301 312 320 325 331
210 214 202 200 205 217 222 218 225 220 214 215 209 212 212 216 218 217 218 223 227 230 230 231 233 238 240 245 251 256 264 275 287 298 307 315 321 327
212 211 212 214 215 209 224 220 223 210 216 207 210 209 211 213 219 220 221 219 222 226 228 231 232 234 238 240 245 252 262 269 282 293 301 310 317 322
209 208 195 201 209 205 216 218 218 219 221 215 211 209 212 215 220 222 222 222 229 230 232 234 234 236 239 241 244 250 260 268 279 285 295 306 312 319
209 206 197 201 197 198 210 213 214 217 215 214 209 210 215 217 223 225 230 228 229 230 229 233 236 237 241 241 243 248 257 267 275 282 291 301 308 314
208 204 196 188 192 199 204 207 214 216 213 204 198 202 213 215 222 224 220 216 223 228 230 232 232 234 234 238 242 247 254 266 272 279 287 295 303 310
209 205 199 186 193 206 202 205 209 213 207 197 197 203 206 210 218 227 223 224 229 227 223 231 230 236 235 239 245 250 259 265 269 275 283 292 299 306
208 203 199 179 188 197 207 210 211 214 200 208 200 201 205 206 215 222 224 224 225 226 220 232 231 235 238 239 245 251 256 260 267 272 280 287 294 302
207 201 187 186 190 194 196 203 210 211 199 198 201 202 210 206 217 223 228 229 229 224 217 224 226 231 235 240 243 248 253 257 263 270 276 283 292 298
205 206 207 182 185 190 201 194 204 208 208 203 200 201 202 211 217 223 226 226 226 225 226 230 232 232 236 242 246 244 248 257 261 267 276 282 288 294
206 206 206 208 189 189 190 197 206 209 211 200 201 211 216 209 217 224 225 230 231 227 228 230 230 233 236 240 243 246 249 256 261 267 272 278 286 289
205 207 207 208 193 188 197 207 203 210 205 200 211 220 213 215 215 222 224 229 228 230 232 232 232 233 236 239 243 249 252 259 261 266 272 276 282 286
202 207 204 207 208 199 197 195 198 206 207 204 214 221 217 214 217 220 222 227 226 231 234 231 231 232 234 238 243 248 253 257 261 267 269 275 280 282
198 202 203 204 198 207 208 205 206 208 207 211 217 217 220 211 216 218 220 224 225 228 232 232 232 234 236 240 244 249 253 255 262 264 266 272 276 277
195 197 199 199 208 204 203 207 207 210 211 213 223 227 218 220 215 215 220 223 227 229 233 235 236 237 239 243 247 249 249 255 257 259 264 269 272 275
190 193 192 201 208 216 213 209 210 213 211 209 221 224 225 214 216 216 218 223 228 231 233 237 240 238 237 239 240 246 252 255 258 260 264 267 272 275
191 192 191 197 200 203 202 202 204 211 207 208 218 221 211 214 218 217 220 223 228 233 234 233 233 235 238 241 243 247 249 251 253 256 261 266 270 274
195 196 193 199 194 193 195 200 206 202 199 207 218 221 211 211 218 218 220 224 225 230 231 232 234 235 237 238 240 243 247 249 252 255 260 265 271 273
Height
3009 3019 3027 3034 3044 3049 3059 3068 3075 3082 3089 3097 3106 3111 3117 3122 3127 3133 3138 3141 3145 3150 3154 3158 3160 3162 3163 3165 3165 3165 3165 3165 3163 3162 3160 3158 3155 3151
3000 3008 3020 3025 3030 3041 3050 3060 3068 3081 3090 3097 3103 3109 3109 3116 3122 3128 3133 3138 3141 3145 3148 3154 3156 3158 3160 3162 3162 3163 3163 3162 3161 3160 3159 3156 3153 3150
2986 2997 3009 3014 3021 3030 3042 3052 3061 3070 3079 3090 3095 3103 3108 3114 3119 3122 3127 3132 3136 3139 3144 3149 3152 3154 3156 3157 3159 3160 3160 3159 3158 3157 3156 3154 3151 3147
2975 2984 2996 3007 3013 3018 3032 3042 3050 3060 3070 3078 3089 3096 3102 3107 3112 3115 3121 3126 3130 3134 3139 3143 3147 3149 3151 3153 3155 3156 3156 3156 3155 3155 3154 3152 3148 3145
2963 2971 2983 2991 3001 3007 3021 3033 3041 3052 3061 3071 3082 3091 3095 3098 3103 3109 3115 3119 3124 3129 3133 3138 3141 3144 3147 3149 3151 3152 3152 3152 3152 3152 3151 3149 3146 3143
2946 2957 2965 2977 2988 2998 3011 3022 3032 3043 3052 3062 3072 3080 3087 3091 3095 3101 3106 3112 3117 3122 3127 3132 3135 3138 3142 3144 3146 3147 3147 3148 3149 3148 3147 3146 3143 3140
2931 2942 2956 2963 2976 2988 2998 3011 3022 3031 3041 3052 3062 3070 3075 3078 3084 3095 3098 3104 3113 3116 3121 3126 3129 3134 3137 3139 3142 3143 3143 3144 3145 3145 3144 3142 3139 3136
2914 2929 2942 2954 2961 2975 2986 2999 3011 3019 3031 3042 3052 3058 3066 3076 3081 3085 3091 3097 3102 3106 3113 3119 3123 3127 3132 3134 3136 3138 3139 3139 3140 3141 3140 3138 3136 3133
2900 2916 2926 2941 2953 2965 2977 2989 3003 3012 3026 3037 3046 3054 3062 3068 3077 3080 3085 3091 3097 3104 3109 3112 3118 3123 3126 3129 3131 3132 3133 3135 3136 3136 3135 3134 3132 3129
2884 2900 2915 2931 2939 2951 2968 2980 2992 3003 3015 3026 3040 3053 3059 3066 3071 3077 3081 3087 3091 3096 3099 3106 3113 3117 3120 3124 3126 3126 3128 3130 3131 3131 3130 3130 3128 3126
2870 2886 2901 2913 2928 2943 2958 2968 2984 2994 3007 3018 3031 3041 3051 3059 3064 3065 3068 3076 3077 3085 3095 3100 3105 3108 3112 3116 3119 3120 3122 3124 3125 3126 3125 3124 3124 3122
2860 2873 2892 2901 2917 2935 2946 2958 2971 2982 2995 3008 3019 3031 3041 3048 3053 3059 3062 3068 3074 3078 3086 3092 3097 3101 3105 3110 3112 3114 3117 3119 3120 3120 3120 3119 3119 3117
2847 2861 2878 2889 2905 2922 2938 2948 2962 2976 2989 2999 3013 3023 3032 3039 3044 3048 3054 3060 3066 3073 3082 3085 3090 3094 3097 3102 3106 3108 3111 3112 3114 3114 3114 3114 3113 3112
2837 2855 2871 2883 2898 2914 2926 2941 2955 2966 2977 2989 3002 3013 3021 3030 3037 3042 3049 3054 3062 3067 3072 3075 3080 3085 3090 3095 3099 3102 3104 3105 3107 3108 3108 3108 3107 3106
2830 2843 2858 2876 2889 2904 2920 2932 2944 2955 2965 2976 2990 3004 3015 3026 3032 3034 3041 3045 3054 3061 3064 3069 3074 3078 3083 3088 3092 3094 3096 3099 3101 3102 3102 3102 3101 3100
2822 2836 2853 2866 2880 2897 2910 2923 2933 2945 2956 2969 2983 2995 3004 3012 3019 3027 3034 3041 3048 3053 3056 3062 3067 3071 3076 3081 3084 3087 3090 3092 3094 3095 3096 3095 3094 3094
2816 2830 2844 2858 2872 2887 2900 2913 2925 2935 2945 2960 2972 2983 2993 3003 3010 3019 3026 3033 3039 3046 3049 3056 3060 3064 3068 3073 3076 3080 3083 3085 3086 3087 3088 3088 3088 3087
2806 2821 2838 2851 2869 2881 2888 2902 2915 2927 2938 2952 2962 2974 2985 2994 3002 3010 3019 3026 3031 3038 3042 3048 3052 3056 3060 3064 3069 3072 3075 3077 3079 3079 3080 3081 3081 3081
2802 2820 2835 2850 2864 2874 2884 2896 2909 2922 2934 2946 2956 2965 2975 2985 2994 3002 3011 3018 3023 3029 3036 3041 3044 3047 3052 3057 3062 3065 3067 3069 3071 3071 3072 3073 3072 3073
2800 2816 2830 2843 2854 2869 2879 2891 2905 2915 2926 2937 2948 2955 2965 2977 2985 2993 3001 3009 3016 3022 3028 3031 3036 3041 3046 3051 3054 3057 3059 3061 3062 3063 3064 3065 3065 3065
2799 2815 2829 2841 2853 2864 2876 2889 2901 2910 2921 2931 2940 2947 2957 2967 2976 2985 2993 3001 3007 3014 3019 3025 3033 3035 3037 3041 3043 3047 3051 3052 3053 3055 3057 3057 3058 3059
2798 2810 2824 2835 2843 2853 2870 2882 2894 2904 2913 2922 2929 2938 2948 2958 2968 2976 2983 2991 2998 3007 3013 3017 3021 3025 3028 3033 3036 3039 3042 3043 3045 3046 3048 3049 3051 3051
2797 2809 2821 2831 2839 2852 2864 2877 2888 2898 2907 2914 2922 2930 2939 2948 2957 2967 2974 2982 2989 2996 3002 3007 3011 3015 3020 3023 3028 3030 3033 3034 3036 3037 3038 3039 3040 3042